Meteo Giornale » Osservazioni meteo Stati Uniti (USA) » Santa Ana John Wayne-Orange

ore: 09:53 - Osservazioni Meteo Santa Ana John Wayne-Orange
Lat. 33° 40' N Lon. 117° 51' W Alt. 16 metri s.l.m.

sereno

23 °C

Sereno

Temp. 24 Ore

20 °C

27 °C

Sud-Ovest

9.3 Km/h

Dew point 15 °C

Umidità 60 %

Visibilità  10 Km

Il sole sorge alle ore 06:25

Il sole tramonta alle ore 19:17

Data e Ora Cielo e Fenomeni T °C DP °C Um. % Pres. hPa Vis. km Vento km/h
Oggi h: 09:53 sereno Sereno 23 15 60 1015 10 SO 9.3
Oggi h: 08:53 poco_nuvoloso Poco Nuvoloso 22 16 68 1015 10 N 0
Oggi h: 07:53 nuvoloso Nuvoloso 21 16 73 1015 10 S/SE 11.1
Oggi h: 06:53 nuvoloso Nuvoloso 20 16 77 1014 10 S 7.4
Oggi h: 06:17 nuvoloso Nuvoloso 21 16 73 1014 10 N 0
Oggi h: 05:53 molto_nuvoloso Molto Nuvoloso 21 16 73 1014 10 N 5.5
Oggi h: 04:53 coperto Coperto 21 17 77 1014 10 N 0
Oggi h: 03:53 coperto Coperto 21 17 77 1014 10 N 5.5
Oggi h: 03:39 coperto Coperto 21 17 77 1014 10 N 0
Oggi h: 02:53 coperto Coperto 21 17 77 1014 10 N 0
Oggi h: 02:32 coperto Coperto 21 17 77 1014 10 O/SO 7.4
Oggi h: 01:53 coperto Coperto 21 18 82 1014 10 N 0
Oggi h: 01:36 molto_nuvoloso Molto Nuvoloso 21 18 82 1014 10 N 0
Oggi h: 00:53 sereno Sereno 21 18 82 1014 10 N 5.5
Ieri h: 23:53 sereno Sereno 21 17 77 1014 10 N 5.5
Ieri h: 22:53 poco_nuvoloso Poco Nuvoloso 21 18 82 1014 10 O/SO 7.4
Ieri h: 21:53 poco_nuvoloso Poco Nuvoloso 22 18 78 1013 10 N 5.5
Ieri h: 20:53 poco_nuvoloso Poco Nuvoloso 22 18 78 1013 10 SO 9.3
Ieri h: 18:53 sereno Sereno 23 18 73 1012 10 SO 11.1
Ieri h: 17:53 poco_nuvoloso Poco Nuvoloso 25 18 65 1012 10 SO 13
Ieri h: 16:53 poco_nuvoloso Poco Nuvoloso 26 18 61 1012 10 SO 16.7
Ieri h: 15:53 poco_nuvoloso Poco Nuvoloso 26 18 61 1012 10 SO 16.7
Ieri h: 13:53 poco_nuvoloso Poco Nuvoloso 26 19 65 1013 10 SO 18.5
Ieri h: 12:53 poco_nuvoloso Poco Nuvoloso 27 19 61 1013 10 S 22.2
Ieri h: 11:53 poco_nuvoloso Poco Nuvoloso 26 19 65 1014 10 S 18.5
Ieri h: 10:53 nuvoloso Nuvoloso 26 19 65 1014 10 S/SO 14.8